Wind_Speed
19 18 18 18 17 18 18 18 18 19 19 19 19 19 18 17 16 15 15 16 17 19 19 20 20 21 22 22 21 20 19 18 18 17 15 15 15 15 15 14 14 14 13 13 13 13 12 12 12 12 12 12 11 11 11 11 11 10 9 9 9 8 8 8 8 7 6 6 5 4 3 3 3 4 4 4 3 2 2 2 1 0 1 2 3
18 18 18 18 18 18 19 19 19 19 19 20 20 19 18 17 16 16 15 16 17 18 19 19 19 21 21 21 20 19 18 18 18 16 14 14 14 14 14 14 13 13 13 13 12 12 12 12 12 12 12 11 11 11 11 11 10 9 8 8 8 7 8 7 7 7 6 5 4 3 3 4 4 4 4 4 3 3 2 2 1 0 1 2 3
19 19 18 18 18 18 18 19 19 20 20 20 19 19 18 18 17 16 15 16 17 17 18 18 19 20 21 21 20 19 18 18 17 16 14 13 13 13 13 13 12 12 12 12 12 12 11 12 12 11 11 11 11 11 10 10 10 9 8 8 7 7 7 7 6 6 6 5 4 3 4 4 5 5 4 4 3 3 3 2 1 0 1 1 2
20 20 20 19 19 19 18 18 19 20 20 20 19 19 18 18 16 16 15 15 16 17 17 18 19 21 21 21 20 19 18 18 18 16 13 12 12 12 12 12 12 11 11 11 11 11 11 11 11 11 11 11 11 10 9 9 8 8 7 7 6 6 5 5 5 5 5 4 3 3 4 4 4 5 5 4 4 4 3 3 1 1 0 1 1
21 21 21 20 20 19 18 18 19 19 20 20 19 19 18 17 16 15 15 16 16 17 17 17 19 21 21 21 20 19 19 19 18 16 13 12 11 11 11 11 11 11 10 10 10 11 11 11 11 11 11 10 10 9 9 8 7 6 6 5 5 4 4 4 4 4 4 3 3 3 4 4 4 4 4 4 4 4 4 3 2 1 1 1 1
22 21 21 20 19 19 18 18 19 19 20 20 20 19 18 17 16 15 15 16 16 16 17 17 19 20 21 21 20 20 20 20 19 16 13 12 11 11 11 11 10 10 10 10 10 11 11 11 11 10 10 9 8 8 8 7 5 4 4 3 3 3 3 3 4 4 3 3 3 4 3 4 3 4 4 5 5 5 4 3 2 2 2 1 1
23 22 21 20 19 19 19 19 19 20 20 20 20 19 18 17 15 15 15 16 16 16 16 17 19 20 21 22 21 21 21 21 20 17 14 12 11 11 11 10 10 9 9 9 10 10 11 11 11 10 9 8 7 7 6 4 3 3 2 2 2 3 3 3 3 3 2 3 3 3 3 4 4 4 5 5 5 5 4 4 3 3 3 2 1
23 22 21 20 20 19 19 19 19 20 20 20 20 18 17 16 15 15 15 16 17 16 16 18 19 20 21 22 22 22 22 22 21 18 14 12 11 11 11 10 9 9 9 9 10 10 10 11 10 9 8 7 6 5 4 2 2 1 1 1 2 3 3 4 4 3 2 2 3 3 3 3 3 4 5 5 5 5 4 4 4 4 4 3 2
21 20 19 19 18 18 19 19 19 20 20 20 19 17 16 15 14 15 16 16 16 17 17 18 19 20 22 23 23 23 23 23 22 19 15 13 12 12 11 10 9 9 9 10 10 10 10 10 10 8 7 6 5 4 3 2 2 1 0 1 2 2 3 4 4 4 3 2 2 2 3 3 3 4 4 5 5 5 5 4 4 5 5 4 3
19 18 17 17 17 17 18 18 19 20 20 19 18 16 15 14 14 15 16 16 16 17 18 18 19 21 22 24 24 24 24 23 22 20 16 14 12 12 11 11 10 9 9 10 10 10 10 10 9 8 6 6 4 3 2 2 2 1 1 1 2 2 3 4 4 4 4 3 2 2 2 3 3 4 4 4 5 5 5 4 5 5 5 5 4
17 17 17 17 16 16 17 18 18 19 19 18 17 15 14 14 15 16 16 16 16 17 18 19 20 21 23 24 25 25 25 24 23 21 17 14 12 12 12 11 10 10 10 11 10 9 9 9 9 7 6 4 3 2 1 3 4 3 3 3 2 1 2 3 4 5 5 4 2 1 2 3 3 4 4 4 5 5 5 5 5 6 6 6 5
17 16 16 16 16 15 16 17 18 18 18 18 16 15 15 15 15 16 16 16 16 17 18 19 20 22 23 25 26 26 25 24 24 22 18 15 13 12 12 12 11 11 11 12 11 9 8 9 8 7 5 3 1 1 2 3 6 6 4 3 2 1 1 1 3 4 4 4 2 1 3 4 4 4 4 5 5 6 6 6 6 6 6 6 6
17 16 16 16 16 15 16 17 18 18 18 17 16 16 15 15 16 16 16 16 17 18 19 20 21 23 24 25 26 26 26 25 24 22 19 16 13 12 13 13 12 12 12 13 12 9 8 8 8 6 5 3 3 2 3 3 7 7 4 4 3 2 2 2 2 3 4 3 1 2 4 5 5 5 5 6 6 6 7 7 7 7 7 7 7
17 16 16 16 16 15 16 17 18 18 18 18 17 16 16 16 16 17 16 16 17 18 20 21 23 24 25 26 27 26 26 25 23 22 19 16 14 13 13 14 13 13 13 13 13 10 9 8 7 6 4 4 5 4 4 3 5 6 4 3 4 3 3 2 2 2 3 2 1 3 5 5 5 6 6 7 7 7 7 7 7 7 7 7 7
18 18 17 17 16 16 17 17 17 18 18 18 17 17 17 17 17 18 17 16 17 19 21 23 24 25 26 27 27 26 25 24 23 21 19 16 14 14 14 15 14 14 14 14 13 11 9 8 7 5 3 4 5 5 4 2 2 4 3 3 4 3 2 1 1 1 2 2 2 4 5 5 5 6 7 7 7 7 7 8 8 8 7 7 7
21 20 18 17 17 17 17 17 18 18 18 17 17 17 18 19 19 19 17 17 18 20 22 24 25 26 27 28 27 26 25 23 22 21 19 17 14 14 15 16 15 15 15 15 14 12 10 8 6 4 3 3 4 5 4 2 1 2 3 2 2 2 1 1 0 1 2 2 3 4 4 5 5 6 7 7 7 8 8 8 8 8 8 7 8
22 20 18 17 17 17 17 18 18 18 17 17 17 18 19 21 21 19 18 18 20 21 23 25 26 27 28 28 27 26 25 23 22 20 19 17 14 14 16 16 16 16 16 15 14 13 11 9 6 3 2 3 4 5 4 4 3 3 3 3 2 1 0 0 1 2 2 2 3 4 4 5 6 6 7 7 8 8 8 8 8 8 8 8 8
22 20 19 18 18 18 18 19 18 17 17 17 18 19 21 22 21 19 19 20 21 23 25 26 27 29 29 28 27 26 25 23 21 20 19 17 14 14 16 17 18 17 17 16 14 13 12 9 6 3 1 2 5 5 5 5 5 4 4 4 3 3 3 3 2 2 2 3 3 4 5 5 6 6 6 7 8 8 9 9 9 9 9 9 9
22 21 19 19 18 18 18 19 18 17 17 18 19 21 22 21 20 20 20 21 23 25 27 28 29 30 29 29 28 26 25 23 21 19 18 17 14 15 17 18 19 18 18 16 15 14 13 10 7 3 0 2 5 5 5 6 6 6 6 5 5 5 5 5 4 3 4 4 4 5 5 5 6 6 7 7 8 9 9 10 10 10 10 10 10
23 22 21 19 18 17 18 18 18 18 18 19 20 20 21 20 20 20 20 22 25 28 29 30 30 30 30 30 29 27 25 22 19 18 17 16 15 16 17 19 19 19 18 17 16 14 13 11 8 4 1 3 5 6 6 6 6 7 7 7 6 6 6 4 4 4 4 4 4 5 5 6 6 7 7 8 8 9 9 10 10 10 10 11 10
23 23 22 20 18 17 17 17 17 17 17 18 19 19 20 20 20 21 22 24 27 29 31 31 31 30 30 30 30 28 25 22 19 17 17 16 15 16 17 19 20 19 19 18 16 15 14 12 9 4 2 4 5 6 8 6 5 7 7 6 5 6 5 3 3 4 4 4 4 4 5 6 6 7 8 8 9 9 10 10 10 11 11 11 11
24 23 21 19 17 16 16 16 16 16 17 18 19 20 20 21 21 23 25 26 28 30 31 31 30 30 30 30 30 27 24 22 19 17 17 16 15 16 18 19 20 19 19 18 16 15 14 13 10 5 3 4 4 6 8 6 5 6 6 5 4 4 3 2 2 3 3 4 4 5 5 6 7 7 8 9 10 10 10 10 11 11 11 12 12
24 21 20 18 17 16 16 16 16 16 17 19 20 21 21 22 24 26 26 26 28 29 30 30 30 29 29 29 27 23 22 22 19 17 16 15 16 16 18 19 20 19 19 18 16 15 14 13 10 5 3 4 5 7 7 5 5 6 6 5 4 3 2 1 2 3 4 5 6 6 6 7 8 8 9 10 10 11 11 11 12 12 12 12 12
22 20 18 18 17 17 16 16 16 17 19 20 22 23 24 25 26 27 26 26 27 28 30 30 29 28 26 26 23 21 21 21 19 18 16 15 16 17 17 18 19 19 18 18 16 15 14 13 10 6 4 4 6 7 6 5 6 7 6 6 5 4 4 3 4 4 6 7 8 9 9 10 10 10 10 10 10 11 12 12 13 13 12 12 12
18 17 18 19 19 18 18 18 18 20 22 24 25 26 26 27 27 27 26 26 26 28 30 31 29 26 24 24 22 21 21 20 18 17 15 16 16 17 17 17 18 19 18 17 16 15 15 13 10 7 5 5 7 6 5 6 7 8 7 7 7 6 6 7 7 8 8 9 10 10 11 11 11 12 11 11 10 11 12 13 13 13 13 13 12
17 18 19 20 20 20 20 20 21 23 25 26 27 27 28 28 28 27 27 26 27 29 31 31 29 25 22 22 21 22 21 19 17 16 16 16 16 16 17 17 18 18 17 17 17 16 15 13 10 8 6 6 7 6 6 6 7 8 7 6 6 5 4 5 7 8 9 9 8 9 10 11 12 12 12 12 12 11 12 13 14 14 14 13 13
22 22 23 23 23 23 23 23 24 25 26 27 28 28 28 28 28 27 27 27 28 30 31 30 27 22 20 19 18 20 20 19 18 17 16 16 17 17 17 17 18 18 18 18 18 17 15 12 10 9 8 7 7 6 6 6 7 7 6 6 5 5 5 6 7 8 8 8 9 9 10 11 12 13 13 13 13 13 13 13 13 14 15 14 14
24 27 28 28 28 27 27 26 25 26 27 28 28 28 28 27 27 26 26 27 28 30 29 26 23 20 18 17 18 18 19 20 19 17 17 17 17 17 17 17 18 18 18 18 18 17 15 12 10 10 9 9 8 6 5 5 6 6 6 6 6 7 7 7 8 8 9 9 10 11 11 12 12 13 13 14 14 15 14 14 14 14 15 15 14
27 33 33 30 30 30 30 28 27 27 28 29 29 29 27 25 24 23 24 26 27 27 26 22 20 19 18 18 19 19 18 19 19 18 18 17 17 16 16 16 16 15 15 17 17 16 14 11 10 10 9 10 9 6 5 4 6 6 6 6 7 7 7 8 9 9 10 10 11 11 12 13 12 12 12 13 14 15 15 15 14 15 15 15 15
27 30 32 31 30 29 30 30 28 28 29 30 30 29 27 25 24 24 24 25 26 24 22 20 19 19 18 19 19 19 18 18 19 19 18 17 16 16 16 15 13 13 14 16 17 15 13 11 10 9 10 11 10 7 5 5 5 6 7 7 6 6 7 9 10 10 11 11 12 12 13 13 12 11 12 12 13 14 15 14 15 15 15 15 15
27 26 29 31 31 29 30 31 30 30 29 29 30 28 26 25 24 23 23 24 24 23 21 20 20 19 18 18 19 19 20 20 20 20 18 16 16 15 15 15 13 13 14 16 16 14 12 11 10 9 10 11 11 9 6 6 5 5 7 7 7 7 8 9 9 10 11 11 12 13 12 11 11 11 11 11 11 12 13 13 14 14 14 15 15
26 26 27 29 31 32 32 31 30 31 29 27 29 28 27 26 24 21 21 23 23 22 22 21 19 19 18 19 19 20 20 20 19 19 17 16 15 15 15 14 13 13 14 15 15 14 11 10 10 10 10 12 12 10 8 7 6 5 6 7 7 7 8 9 8 9 10 11 12 12 10 9 9 10 9 9 9 9 10 12 12 13 13 14 14
24 24 25 27 29 30 31 29 27 28 27 27 28 27 27 27 25 24 21 21 23 23 22 21 19 19 19 19 19 18 18 18 18 17 16 15 15 15 14 13 12 12 14 16 15 12 10 10 10 10 11 12 12 11 9 7 6 6 6 6 6 7 8 8 7 8 9 11 12 10 8 8 8 8 9 8 8 7 8 9 11 11 12 12 13
23 23 22 25 25 26 27 25 24 26 28 29 29 25 24 24 25 25 23 22 23 23 22 21 20 19 19 20 19 18 17 17 17 16 16 15 15 15 14 12 11 12 15 16 14 12 10 10 10 11 12 14 13 11 10 8 7 7 6 6 6 7 8 7 7 7 9 11 11 9 8 8 8 8 8 7 7 6 6 7 8 9 10 11 11
22 22 21 20 19 20 22 23 24 26 26 27 27 25 23 25 26 25 24 24 23 23 22 21 19 19 20 20 19 18 18 17 16 15 15 16 16 16 13 11 10 11 14 17 16 14 12 11 11 13 15 16 15 13 12 9 7 7 7 7 6 7 7 7 7 7 8 10 9 8 7 8 8 7 6 7 6 5 6 7 7 7 8 9 9
20 21 21 19 17 18 19 20 22 23 22 22 23 23 24 26 26 25 23 23 23 23 22 20 19 19 20 21 20 18 18 17 15 15 15 16 16 15 12 10 10 10 12 15 15 14 13 12 11 14 17 18 17 15 12 10 9 8 7 7 6 6 7 7 7 7 8 8 8 7 6 7 7 6 7 8 6 5 6 6 6 6 7 8 8
21 20 20 19 18 19 19 19 20 21 21 20 22 23 25 26 25 25 24 23 23 23 22 21 20 20 20 22 21 19 18 17 15 15 15 15 15 13 11 11 10 10 12 13 12 12 13 13 12 12 15 16 15 13 11 9 9 8 7 7 6 6 7 7 7 7 7 8 7 6 6 6 6 6 7 7 5 4 6 6 6 6 7 8 8
21 20 19 19 20 21 20 20 23 24 21 21 24 25 25 26 25 25 25 23 23 23 22 22 20 19 20 22 21 19 19 17 16 16 16 15 15 14 12 12 12 11 12 13 13 13 13 14 14 14 14 14 14 13 11 9 8 8 7 7 6 6 7 7 7 7 7 8 7 6 6 6 5 6 6 5 4 4 5 6 6 7 8 8 8
19 18 19 21 23 24 22 21 24 23 21 23 26 26 25 24 23 24 24 21 21 22 22 21 19 19 20 22 21 19 19 18 17 17 17 16 15 14 13 13 13 13 12 13 13 13 13 13 14 14 14 14 14 13 11 9 8 7 7 7 7 6 7 7 7 7 7 8 7 6 5 5 5 5 5 4 4 4 4 6 7 8 8 9 8
17 18 20 23 25 26 25 23 21 17 18 23 26 25 24 24 24 23 23 22 21 20 21 20 18 19 20 21 21 20 19 18 17 17 17 16 15 15 15 14 13 13 13 13 13 13 13 12 12 13 14 14 14 12 10 8 8 7 7 7 7 7 7 7 8 8 8 8 7 5 4 4 5 5 5 5 4 3 3 6 8 8 8 8 8
17 18 20 23 26 27 27 27 24 22 24 25 25 26 25 23 22 21 23 23 21 19 19 19 19 19 18 18 19 19 18 17 17 16 16 16 14 14 15 15 14 13 12 13 14 14 14 13 13 14 14 15 14 11 9 8 8 7 7 8 8 7 7 8 8 8 8 8 8 6 6 6 6 6 4 4 4 2 2 4 6 8 9 9 9
19 19 21 24 26 28 29 28 27 27 26 22 19 20 23 22 19 20 23 23 20 19 18 18 19 18 16 17 17 17 17 16 16 15 15 15 14 14 15 16 15 12 11 12 13 14 14 14 15 15 15 15 13 11 10 9 9 8 8 8 8 8 8 9 9 9 8 8 8 8 8 8 7 6 4 3 3 3 2 3 5 7 8 9 9
21 21 22 26 27 28 28 28 26 25 24 22 18 15 17 21 21 22 24 22 19 18 17 18 19 17 15 17 17 16 16 15 15 15 15 15 14 15 16 17 16 13 12 12 14 14 14 15 16 16 16 15 13 12 11 10 10 9 9 9 9 9 9 9 9 9 9 9 9 8 8 8 7 6 5 4 3 3 3 3 4 5 6 7 7
23 24 25 26 28 28 27 26 25 24 24 24 24 22 19 17 20 24 22 20 19 16 18 20 19 17 16 17 17 17 17 16 16 16 15 15 15 16 17 17 17 15 14 14 14 14 15 15 16 16 16 15 13 12 12 11 11 10 10 10 9 9 9 9 9 9 9 9 9 10 9 8 7 6 6 5 5 5 4 4 4 5 6 6 6
24 26 27 27 27 28 26 24 23 24 25 26 26 25 21 20 16 23 22 19 19 17 19 21 20 17 16 16 16 17 17 16 17 16 15 16 16 17 17 17 18 16 15 15 14 14 16 17 17 17 16 14 13 13 13 13 12 11 11 11 10 9 9 9 9 9 9 10 10 11 10 10 10 9 8 7 7 7 6 6 6 6 6 6 7
24 27 29 28 28 27 24 22 22 23 24 26 27 25 22 20 12 17 21 20 19 18 20 20 18 16 15 15 16 17 17 17 17 16 15 16 17 18 18 18 18 17 16 15 14 15 18 19 19 18 16 14 14 15 15 14 13 12 12 12 10 10 10 10 10 10 10 10 11 12 12 12 12 11 9 9 8 8 8 8 8 7 7 8 8
23 27 30 30 30 30 26 22 22 22 21 23 24 23 21 16 8 8 17 20 20 18 19 18 17 16 16 16 16 17 17 16 16 16 16 16 18 19 18 18 18 17 16 16 16 18 19 20 20 19 17 16 16 16 15 15 14 13 13 13 11 11 10 10 10 10 11 11 11 12 12 13 13 12 12 11 10 10 10 10 9 9 9 9 9
23 25 28 29 28 29 27 24 22 20 20 19 19 18 18 14 8 6 10 16 19 19 18 18 18 19 18 18 17 17 17 16 16 16 17 18 18 18 18 18 18 18 17 17 18 20 21 21 21 20 18 17 17 17 16 16 16 14 14 14 12 12 11 11 11 12 12 12 12 12 13 13 13 13 13 13 12 12 12 11 11 10 10 10 10
21 21 24 26 26 25 25 24 22 20 19 18 15 13 13 14 11 10 9 11 15 20 20 20 20 20 19 18 17 17 17 17 18 18 19 20 19 18 18 19 19 18 18 18 20 21 22 22 22 21 19 18 18 18 18 18 17 16 15 14 13 13 12 12 13 13 13 13 13 12 13 13 13 14 14 14 14 13 13 13 12 12 12 12 11
19 20 21 22 21 21 23 22 21 20 19 19 16 11 10 12 12 12 13 12 14 18 20 20 20 20 18 17 18 18 18 19 20 21 22 22 21 20 20 20 20 19 19 19 21 22 23 23 23 21 20 19 19 20 19 18 18 17 15 14 14 14 14 14 15 15 14 13 13 13 13 13 13 14 15 15 15 14 14 14 13 13 13 12 12
22 22 23 23 20 19 20 20 19 18 19 19 18 14 12 12 12 13 14 15 15 17 19 19 20 20 19 19 19 20 20 20 21 22 24 24 23 22 21 21 20 19 19 20 21 22 22 23 22 21 21 21 20 20 20 19 18 17 15 15 15 15 15 15 16 15 15 14 14 14 14 14 14 15 15 15 15 15 15 14 14 13 13 13 12
Wind_Direction
284 288 290 292 295 298 298 296 295 293 292 291 291 290 290 292 295 298 303 307 310 314 320 323 324 326 328 330 333 338 339 339 340 342 343 345 345 344 342 342 342 343 345 348 351 353 351 346 337 330 326 324 323 323 321 320 322 324 326 324 325 328 327 327 325 323 321 314 305 296 282 262 229 224 221 216 208 205 201 180 176 151 44 40 47
280 284 287 291 294 296 298 297 296 295 293 291 290 288 288 289 292 296 301 305 309 314 319 321 322 324 327 330 334 339 339 337 339 340 342 344 344 343 341 341 342 343 345 349 352 352 347 339 332 328 327 326 325 324 323 322 323 323 324 323 323 326 324 324 324 323 324 319 308 290 256 233 221 224 220 211 208 212 208 196 183 111 45 39 41
282 285 288 291 292 293 294 294 293 291 289 288 287 285 285 287 290 294 299 304 309 314 317 318 320 324 327 330 335 339 337 335 337 338 340 343 343 341 339 340 341 343 347 350 351 348 341 334 331 330 328 327 328 327 328 329 329 326 325 324 321 322 322 321 320 320 319 312 302 280 251 232 222 225 226 215 207 210 208 205 186 127 60 54 44
285 288 290 292 292 292 292 291 288 287 287 286 285 283 284 285 289 294 300 304 308 313 314 317 320 324 328 331 334 336 334 332 334 335 337 339 341 340 339 339 341 345 348 350 348 342 336 333 333 332 330 330 330 330 334 335 335 331 326 323 323 325 323 319 313 309 304 297 288 269 254 241 229 224 226 221 210 211 213 208 192 179 127 85 67
286 288 290 292 292 292 291 289 286 285 285 285 284 284 284 286 291 295 299 303 307 311 313 317 321 325 328 329 331 332 331 330 331 332 333 335 337 338 337 338 342 346 348 347 342 337 335 335 336 334 333 333 334 335 338 339 339 337 334 331 329 326 319 311 303 299 299 301 289 266 253 246 234 221 220 220 213 214 217 211 204 202 191 174 137
288 289 291 293 294 293 291 289 287 286 285 285 284 284 284 287 292 295 298 302 305 309 313 318 321 323 325 326 328 329 329 327 329 330 330 331 332 333 334 337 342 346 346 343 337 335 335 337 339 338 338 339 339 342 343 343 346 347 347 344 332 324 316 310 305 308 311 308 294 277 265 251 238 225 223 222 218 215 217 215 218 221 224 223 198
291 292 293 294 294 292 290 288 287 286 284 283 282 282 283 286 290 293 296 300 303 308 313 316 317 320 322 324 325 326 326 325 326 327 326 326 328 330 332 338 342 345 343 338 335 334 336 340 342 341 343 346 344 347 350 355 1 359 356 348 334 328 325 321 314 312 304 298 289 281 274 259 245 235 233 231 227 223 223 222 227 235 234 234 232
292 294 295 293 290 288 287 287 285 283 280 279 279 280 282 285 288 291 295 298 302 307 310 312 314 318 320 321 322 323 322 322 324 324 323 323 326 328 333 339 341 343 339 335 333 333 338 343 343 344 346 348 347 348 357 22 45 23 340 329 332 332 333 331 321 307 283 274 278 280 280 269 259 247 246 246 243 239 235 234 239 244 241 238 238
293 295 295 293 290 287 286 284 281 279 276 275 276 279 282 284 287 290 293 296 302 306 307 309 312 315 317 318 320 321 320 320 322 322 320 319 324 327 333 338 339 339 335 333 331 332 340 344 344 344 346 349 348 346 1 49 87 105 2 332 340 344 342 334 322 306 279 254 253 269 283 281 275 265 262 263 259 253 249 250 252 253 251 247 245
298 298 296 295 293 289 284 281 279 277 276 275 276 277 280 283 285 288 291 295 301 303 304 307 311 313 314 316 317 318 318 319 320 320 317 316 322 328 331 332 335 335 331 329 328 333 341 345 344 343 345 353 353 349 13 36 49 65 49 13 351 342 336 328 317 302 280 255 235 246 281 292 288 278 275 277 272 264 261 261 260 260 257 255 252
301 301 299 299 298 291 283 280 279 277 277 276 275 275 277 279 282 285 288 293 297 299 302 306 308 309 310 313 315 316 317 318 317 318 314 313 320 326 328 327 330 330 326 325 326 333 342 345 345 341 342 354 359 352 3 11 9 11 22 30 24 341 314 312 307 299 283 258 236 250 294 304 295 279 274 278 275 270 265 263 263 262 263 261 260
301 299 299 299 295 288 282 280 279 278 276 275 272 270 272 274 278 282 286 291 294 296 299 303 304 305 307 310 312 314 316 317 316 315 311 310 317 324 324 322 326 325 322 322 324 331 342 346 346 339 333 333 333 311 305 350 9 12 16 26 44 52 355 314 309 303 282 256 247 297 303 294 281 269 263 266 267 263 260 259 261 262 263 262 261
298 296 294 291 286 282 279 279 278 276 273 269 266 264 265 269 274 279 283 287 290 293 296 298 299 301 304 307 310 313 315 315 314 312 309 308 314 321 321 319 321 321 319 320 321 329 342 347 345 339 326 300 268 272 296 343 15 19 21 19 30 50 35 358 330 315 288 269 279 299 287 275 267 262 258 257 258 257 256 258 261 262 261 260 259
293 290 287 282 277 273 272 272 271 269 266 263 259 259 261 266 272 276 278 282 286 289 292 293 295 298 302 305 308 310 312 313 312 309 307 307 311 317 317 316 317 317 316 317 319 325 340 347 343 337 320 286 262 264 290 334 15 22 27 18 20 36 31 0 341 326 296 281 276 270 265 261 259 260 258 256 257 256 257 258 259 260 260 260 259
290 286 281 275 270 267 266 265 263 262 261 258 256 256 259 264 269 271 273 277 281 284 287 289 292 295 298 302 305 307 309 310 309 306 305 305 307 314 315 313 313 313 313 314 316 321 334 344 340 334 315 284 269 263 277 306 357 13 22 22 22 34 42 19 344 310 283 270 254 252 250 250 251 255 255 255 255 256 256 257 258 259 260 262 262
289 285 277 269 266 265 262 259 258 257 257 255 254 255 258 262 265 267 269 272 276 280 282 285 288 292 295 298 301 304 306 306 305 303 304 303 303 311 312 310 309 309 311 312 313 317 327 336 335 333 312 287 279 266 258 255 264 325 349 353 14 35 57 63 276 251 258 261 260 255 251 249 249 251 253 256 258 259 258 258 259 261 262 262 262
288 282 273 264 261 259 255 254 254 253 253 252 253 254 256 260 263 264 266 269 273 276 278 281 285 288 291 295 298 300 301 302 301 300 301 299 300 307 308 307 305 306 308 309 309 312 320 325 328 333 328 298 282 265 245 228 226 269 317 317 305 287 272 262 215 211 225 244 254 256 255 253 251 252 254 258 262 262 262 261 260 260 260 259 258
285 277 269 261 257 254 254 254 251 248 248 250 251 252 255 258 260 261 263 268 272 274 276 279 283 286 289 292 294 296 297 297 297 297 298 295 296 302 303 303 303 305 306 306 305 307 313 317 322 328 356 294 277 263 240 227 221 245 290 309 292 264 258 259 236 210 212 226 236 245 252 256 258 259 258 260 262 262 262 262 261 260 258 257 256
280 274 265 258 253 253 255 253 248 244 244 246 248 251 254 256 258 260 264 270 274 276 278 281 284 286 288 289 290 291 293 293 295 296 295 292 293 297 300 301 302 303 304 304 302 304 308 309 313 316 128 247 267 262 244 232 228 243 271 296 296 279 267 262 248 230 225 226 230 237 244 253 260 262 261 259 258 260 261 262 260 260 259 257 256
276 271 264 257 253 254 254 251 246 243 243 245 248 252 254 255 258 262 265 270 274 276 278 281 283 284 285 285 285 287 288 288 292 294 291 290 290 294 297 300 302 302 303 302 300 301 303 304 305 305 194 219 257 266 257 242 241 255 272 288 291 284 275 265 253 249 249 246 243 245 250 255 258 259 259 258 256 257 259 260 260 259 259 258 257
272 267 263 257 254 255 254 249 246 245 244 246 249 251 253 255 258 261 265 271 274 276 278 279 280 281 281 281 280 282 283 282 289 290 286 286 286 290 296 300 301 301 301 299 298 298 299 300 300 299 202 213 247 265 266 260 260 270 279 286 283 280 279 265 247 253 260 259 260 263 266 268 268 266 264 263 261 259 258 258 258 258 259 259 258
270 266 261 257 256 256 254 251 249 249 248 249 250 252 254 257 260 264 268 273 275 276 277 277 277 278 277 276 277 278 277 277 284 285 281 281 282 288 294 298 300 299 298 297 296 295 296 298 297 294 215 216 241 257 268 280 282 279 284 286 279 277 284 264 235 245 252 252 261 266 272 275 276 276 274 272 269 266 262 260 258 257 257 258 258
267 264 259 256 257 257 257 257 257 256 256 254 255 257 259 262 265 268 273 276 276 275 275 275 275 275 275 275 274 271 270 273 278 278 277 277 280 285 291 297 298 296 294 293 292 292 294 295 294 287 234 222 239 253 271 290 286 283 288 288 282 264 244 194 207 234 244 246 250 255 265 273 275 277 277 276 275 272 267 263 261 259 258 257 257
263 264 262 261 261 259 259 263 264 264 262 260 260 260 263 266 268 272 276 277 275 274 274 275 275 274 272 271 267 262 264 270 273 274 273 273 276 282 290 295 294 293 291 287 287 289 291 291 291 282 250 232 240 254 275 286 284 287 287 280 282 275 254 259 268 265 260 255 255 257 264 273 276 275 274 276 278 276 271 266 263 262 260 258 257
266 268 267 265 259 255 256 260 263 263 261 260 260 261 264 267 271 275 276 275 274 273 274 276 275 272 267 264 261 258 258 262 268 270 268 269 274 280 286 289 289 289 287 284 284 285 287 288 287 279 259 243 241 254 273 279 282 285 282 275 284 292 273 266 272 271 268 265 265 268 270 275 277 274 270 272 275 274 272 268 265 263 262 259 257
269 263 259 258 251 246 248 252 255 256 256 257 258 260 265 269 274 275 274 273 272 272 274 274 273 267 261 257 256 257 257 259 264 264 262 265 271 277 282 283 284 284 283 283 283 283 284 286 285 278 267 252 245 252 266 272 276 279 281 278 287 307 298 277 272 268 269 272 277 280 280 279 279 275 270 269 270 270 267 264 263 262 261 259 257
264 260 251 243 239 237 239 243 247 250 252 254 256 260 265 271 273 273 272 271 270 272 273 273 268 261 255 250 253 258 259 259 260 257 257 262 268 273 277 279 281 281 280 281 281 281 283 286 284 279 271 260 252 251 261 269 269 271 280 282 286 302 302 295 287 276 274 281 288 290 288 285 283 281 276 271 268 266 262 257 255 257 259 258 257
257 254 243 233 229 228 233 237 243 246 249 252 254 259 266 270 270 269 270 269 270 272 274 271 263 255 251 248 253 257 257 257 253 251 253 258 265 269 273 276 279 279 277 276 277 279 283 285 282 278 272 266 261 253 257 261 257 260 271 282 287 291 292 296 296 290 285 288 293 294 292 291 289 286 281 276 270 265 261 254 248 248 251 254 255
259 244 234 230 227 225 228 233 239 243 246 249 253 259 264 264 264 265 266 267 269 271 271 265 255 251 251 249 252 253 254 254 249 247 249 254 260 264 269 272 275 275 272 272 274 278 285 285 277 275 272 269 264 259 261 244 236 248 263 280 290 292 292 295 299 301 299 299 300 300 298 297 293 288 286 282 276 267 260 253 246 242 243 246 249
275 248 238 235 230 230 232 235 238 240 244 247 252 257 257 258 262 263 262 264 266 266 262 255 252 251 251 251 251 252 254 255 250 247 248 251 255 260 263 265 268 270 269 271 274 279 285 279 271 272 270 269 267 265 262 231 220 240 256 275 287 289 290 292 297 302 304 304 304 304 303 302 297 293 292 290 283 270 260 252 246 243 242 242 244
283 265 255 246 240 243 242 241 240 241 245 248 253 256 254 255 260 258 255 258 260 257 253 252 254 254 251 251 251 250 254 255 251 246 244 246 251 254 256 257 262 265 267 272 274 275 276 270 269 269 266 268 268 267 256 225 216 237 249 265 282 286 287 289 295 302 303 303 305 306 305 303 301 299 299 300 294 276 259 250 245 244 243 243 243
279 272 266 256 248 246 244 245 244 241 244 248 253 257 257 256 253 247 246 251 254 253 253 255 255 254 253 252 250 250 252 250 246 242 241 244 249 250 249 251 257 261 265 268 267 266 263 262 264 263 262 263 264 265 252 227 223 244 254 268 285 288 285 287 298 307 305 304 309 308 306 305 305 306 305 306 304 284 259 248 244 244 243 243 243
276 271 268 265 255 247 248 255 256 251 250 251 250 252 259 260 254 249 245 246 250 252 255 255 251 251 252 250 248 248 247 242 239 239 243 247 248 247 247 251 257 261 260 254 255 260 256 253 256 258 257 253 256 261 252 235 234 249 262 278 289 286 283 291 303 309 305 307 311 307 305 307 309 314 311 308 308 292 264 250 245 244 243 242 241
273 271 269 267 256 249 253 260 263 262 264 264 255 247 251 254 250 249 248 247 250 253 253 253 250 250 249 246 244 244 241 237 237 241 247 250 246 245 248 255 260 259 250 241 245 255 254 254 254 252 251 246 249 256 254 246 244 250 261 275 280 278 282 291 299 304 306 309 310 305 306 310 312 318 319 314 309 298 274 254 245 242 239 237 237
270 271 266 264 257 252 253 256 259 263 270 269 256 244 243 244 242 243 247 248 250 251 251 252 251 252 249 241 239 241 238 234 237 243 251 252 244 242 247 254 256 251 240 235 242 250 253 257 255 249 246 247 249 253 253 249 246 251 260 269 273 273 279 286 291 300 308 310 310 308 307 312 315 319 327 327 317 300 276 257 242 237 234 231 231
270 268 261 260 264 262 259 260 263 266 270 265 254 248 245 243 240 241 245 245 247 249 250 253 253 252 247 237 235 238 234 231 237 245 251 249 240 239 243 244 241 237 232 233 240 248 250 252 255 250 244 245 249 248 247 243 242 249 258 266 271 270 274 278 286 301 309 310 312 312 309 314 317 318 325 326 317 289 261 249 233 225 223 222 222
277 275 265 260 264 269 273 277 277 275 272 263 258 255 251 248 244 243 243 240 242 246 249 254 254 250 240 231 230 233 232 231 236 244 247 242 237 240 238 227 225 226 229 234 239 243 245 245 248 250 245 245 246 240 236 235 240 247 253 263 268 267 270 274 284 300 306 305 310 311 306 310 311 315 325 325 317 287 253 237 222 213 210 211 213
287 287 276 261 258 266 275 287 288 282 277 268 260 255 250 248 245 243 242 240 240 243 248 253 252 244 234 227 226 228 230 231 235 240 243 241 237 239 233 222 221 221 227 240 242 238 243 245 241 245 249 246 238 230 226 230 239 245 251 260 266 263 263 271 281 293 298 297 302 304 299 299 297 309 329 330 321 297 251 230 217 208 204 205 206
292 287 275 260 257 263 269 288 296 286 274 265 260 256 248 242 241 243 243 241 240 242 246 249 245 238 230 225 225 227 229 230 233 236 239 240 235 233 231 226 222 218 227 244 244 238 243 244 238 242 247 240 230 226 225 230 238 245 250 255 261 258 257 266 275 283 289 286 290 295 286 287 291 300 317 316 311 299 245 225 217 208 204 205 207
285 280 270 260 260 265 268 281 294 294 284 270 260 257 252 242 241 242 237 236 241 242 245 246 239 233 230 226 224 225 227 228 230 232 233 235 233 230 229 226 219 215 229 245 242 238 243 242 240 243 242 235 230 228 230 238 242 243 248 253 255 252 251 258 266 275 279 274 279 280 260 271 288 289 295 299 296 285 228 218 217 210 204 206 211
275 273 270 266 267 269 272 275 280 286 290 282 266 258 255 247 241 236 229 230 237 239 242 243 234 231 232 227 223 222 223 224 225 227 228 229 228 228 226 221 213 213 229 242 237 235 241 242 242 242 239 234 231 229 234 244 246 245 249 251 251 247 246 253 259 267 271 268 272 269 260 273 283 275 273 281 280 265 220 211 210 207 206 210 217
270 270 271 273 273 275 277 279 282 284 291 298 288 264 252 248 241 227 223 228 235 238 240 235 227 230 233 227 221 218 218 219 221 224 226 227 225 223 221 214 210 216 228 235 234 235 240 241 240 239 236 234 233 232 236 242 246 249 252 249 248 244 243 249 256 265 269 270 273 269 269 277 275 263 251 254 262 248 221 202 197 200 206 214 224
271 271 271 273 274 277 280 282 287 289 293 297 295 288 269 254 237 220 220 228 235 238 230 221 222 228 229 223 219 215 215 216 221 226 227 230 227 220 215 210 214 223 228 230 233 236 239 239 238 239 237 234 234 237 241 244 245 248 250 248 246 245 245 249 256 266 270 271 274 271 270 270 265 255 245 244 248 234 215 198 191 198 206 214 221
271 272 272 273 274 278 280 282 286 289 290 284 284 297 302 280 242 220 221 227 231 231 218 214 221 224 222 221 217 214 213 216 224 230 230 231 226 213 208 210 218 226 225 224 228 234 239 239 238 238 238 238 239 243 245 247 248 248 249 247 245 246 249 253 259 268 272 273 275 272 265 256 253 255 248 247 249 236 219 212 211 213 212 212 214
270 272 275 277 279 283 282 281 286 290 290 287 287 293 300 305 266 222 218 223 222 219 212 213 218 218 218 219 217 217 216 217 223 228 229 227 218 207 205 209 215 220 221 221 224 232 238 238 238 238 238 240 243 246 248 249 249 249 250 249 246 247 250 257 263 268 271 273 274 272 264 251 252 256 247 246 251 244 233 229 230 227 220 218 219
269 270 275 278 280 284 282 279 285 291 291 287 290 289 288 307 296 223 218 219 214 209 207 209 211 212 218 217 217 220 220 219 221 224 226 220 213 209 207 207 210 214 219 222 224 230 235 237 238 239 238 240 243 246 248 250 250 249 250 249 247 246 248 255 262 266 268 270 270 269 264 255 255 253 239 238 245 243 241 239 235 230 226 226 226
273 270 274 279 284 286 281 275 277 284 288 285 289 291 285 293 303 236 225 218 212 208 205 205 205 210 218 217 217 218 218 221 222 223 222 214 208 208 206 206 210 213 217 223 226 229 233 235 237 238 237 238 241 245 248 250 250 248 248 248 244 242 245 252 259 263 265 266 266 263 258 255 256 249 237 237 241 239 242 241 233 228 228 230 229
279 276 277 281 288 291 285 276 273 275 281 286 292 295 287 281 271 245 233 220 215 211 209 209 206 210 216 216 217 218 219 223 224 222 216 207 203 203 204 209 214 216 218 223 227 230 232 233 235 237 237 238 241 245 248 250 249 247 245 244 241 241 242 247 252 256 259 262 263 259 253 250 250 247 240 240 242 242 242 238 231 227 228 229 229
284 287 289 285 281 285 287 282 279 276 277 283 291 292 283 278 264 242 237 230 221 216 215 212 207 210 214 215 216 219 222 223 221 217 210 204 202 205 210 214 217 218 221 224 227 230 232 234 236 238 238 240 243 247 248 249 249 246 243 241 240 241 241 243 247 249 252 256 258 259 255 248 245 245 243 241 243 245 243 239 233 230 230 231 231
290 288 290 286 277 280 287 287 285 282 278 279 279 274 261 259 257 242 230 227 227 223 217 210 208 213 216 217 217 219 222 220 216 213 211 209 210 213 216 217 217 219 222 225 228 231 233 234 237 239 240 241 244 247 248 248 247 245 242 239 238 240 240 241 243 245 248 251 253 255 255 251 246 245 243 242 243 244 243 241 238 235 234 236 239
291 286 280 276 274 282 289 285 283 282 281 280 275 266 253 239 236 232 223 217 218 221 220 214 214 218 218 220 220 219 218 216 214 213 215 217 218 218 218 218 218 219 223 228 231 233 235 236 238 239 241 242 245 248 248 246 245 244 242 239 238 238 239 240 241 242 245 248 249 250 250 249 246 244 243 242 242 243 243 243 242 242 242 245 248
Height
5866 5866 5865 5864 5864 5863 5863 5862 5862 5862 5861 5861 5861 5860 5860 5859 5859 5859 5859 5859 5858 5858 5857 5857 5856 5855 5854 5853 5852 5851 5850 5849 5848 5848 5847 5847 5846 5846 5845 5845 5844 5844 5843 5843 5842 5842 5841 5840 5839 5838 5838 5837 5837 5836 5835 5834 5834 5833 5832 5831 5830 5830 5829 5829 5829 5829 5828 5828 5827 5827 5828 5828 5828 5828 5828 5828 5828 5828 5829 5829 5829 5828 5828 5827 5827
5865 5865 5864 5864 5863 5863 5862 5862 5861 5861 5860 5860 5860 5860 5859 5859 5858 5858 5858 5858 5858 5857 5857 5856 5855 5854 5853 5852 5852 5851 5850 5849 5848 5848 5847 5847 5846 5846 5845 5845 5844 5844 5843 5843 5842 5841 5841 5840 5839 5838 5837 5837 5836 5835 5834 5834 5833 5832 5831 5831 5830 5829 5828 5828 5828 5828 5828 5827 5827 5827 5828 5829 5829 5829 5829 5829 5829 5829 5829 5829 5829 5829 5828 5828 5827
5864 5864 5864 5863 5863 5862 5862 5861 5861 5860 5860 5859 5859 5859 5858 5858 5858 5858 5858 5858 5857 5857 5856 5855 5855 5854 5853 5852 5852 5851 5850 5849 5848 5848 5847 5847 5846 5846 5846 5845 5844 5844 5843 5843 5842 5841 5840 5839 5838 5838 5837 5836 5836 5835 5834 5833 5833 5832 5831 5830 5829 5829 5828 5827 5827 5827 5827 5827 5828 5828 5829 5829 5829 5829 5829 5829 5829 5829 5829 5829 5829 5829 5828 5828 5828
5863 5863 5863 5862 5862 5861 5861 5861 5860 5859 5859 5858 5858 5858 5857 5857 5857 5857 5857 5857 5857 5856 5856 5855 5854 5854 5853 5852 5851 5850 5850 5849 5848 5847 5847 5847 5846 5846 5846 5845 5844 5844 5843 5842 5842 5841 5840 5839 5838 5837 5837 5836 5835 5834 5834 5833 5832 5831 5830 5830 5829 5829 5828 5827 5827 5827 5828 5828 5828 5829 5829 5829 5829 5829 5829 5829 5829 5829 5829 5829 5829 5829 5828 5828 5828
5862 5862 5861 5861 5860 5860 5860 5859 5859 5858 5858 5857 5857 5857 5856 5856 5856 5856 5856 5856 5856 5856 5855 5855 5854 5854 5853 5852 5851 5850 5849 5848 5847 5847 5847 5846 5846 5846 5846 5845 5844 5843 5843 5842 5841 5840 5839 5839 5838 5837 5836 5835 5834 5834 5833 5832 5832 5831 5830 5829 5829 5828 5828 5828 5828 5828 5828 5828 5829 5829 5829 5829 5829 5829 5829 5829 5830 5830 5829 5829 5829 5829 5829 5828 5828
5860 5860 5860 5859 5859 5859 5858 5858 5858 5857 5857 5856 5856 5855 5855 5856 5856 5856 5856 5855 5855 5855 5855 5854 5854 5853 5852 5851 5850 5849 5848 5847 5847 5847 5846 5846 5846 5846 5845 5845 5844 5843 5842 5841 5841 5840 5839 5839 5838 5837 5836 5835 5834 5833 5832 5832 5831 5830 5830 5830 5829 5828 5828 5828 5828 5828 5828 5829 5829 5829 5829 5829 5829 5829 5829 5830 5830 5830 5829 5829 5829 5829 5829 5828 5828
5858 5859 5859 5858 5858 5857 5857 5857 5857 5856 5856 5855 5854 5854 5855 5855 5855 5855 5855 5855 5855 5855 5855 5854 5853 5852 5851 5850 5850 5849 5848 5847 5847 5846 5846 5846 5846 5845 5845 5844 5844 5843 5842 5841 5840 5839 5839 5838 5837 5836 5836 5835 5834 5833 5832 5831 5830 5830 5830 5829 5829 5829 5828 5828 5829 5829 5829 5829 5829 5829 5829 5829 5829 5829 5830 5830 5830 5830 5829 5829 5829 5829 5829 5829 5829
5857 5857 5857 5857 5857 5856 5856 5856 5855 5855 5854 5854 5854 5854 5854 5854 5854 5854 5854 5854 5854 5854 5854 5854 5853 5852 5851 5850 5849 5849 5848 5847 5846 5846 5846 5845 5845 5845 5845 5844 5843 5842 5841 5841 5840 5839 5839 5838 5837 5836 5835 5835 5834 5833 5832 5831 5830 5830 5829 5829 5829 5829 5829 5829 5829 5829 5829 5829 5829 5829 5829 5829 5829 5830 5830 5830 5830 5830 5829 5829 5829 5829 5829 5829 5829
5856 5856 5856 5855 5855 5855 5855 5855 5854 5854 5853 5853 5853 5853 5853 5853 5853 5853 5853 5853 5853 5853 5853 5853 5852 5851 5850 5850 5849 5848 5847 5846 5846 5845 5845 5845 5845 5844 5844 5843 5843 5842 5841 5840 5839 5839 5839 5838 5837 5836 5835 5834 5833 5832 5831 5831 5830 5830 5829 5829 5829 5829 5830 5830 5829 5829 5829 5829 5829 5829 5829 5829 5829 5830 5830 5830 5830 5830 5829 5829 5829 5829 5829 5829 5829
5854 5854 5854 5854 5854 5854 5853 5853 5853 5852 5852 5852 5852 5853 5853 5852 5852 5852 5852 5852 5852 5852 5852 5852 5851 5850 5850 5849 5848 5848 5847 5846 5845 5845 5845 5844 5844 5844 5843 5842 5842 5841 5840 5840 5839 5839 5839 5838 5837 5836 5835 5834 5833 5832 5831 5831 5830 5830 5830 5830 5830 5830 5830 5830 5829 5829 5829 5829 5829 5829 5830 5830 5830 5830 5830 5830 5830 5830 5829 5829 5829 5829 5829 5829 5829
5853 5852 5852 5852 5852 5852 5852 5851 5851 5851 5851 5851 5852 5852 5852 5851 5851 5851 5851 5852 5852 5851 5851 5850 5850 5849 5849 5848 5847 5847 5846 5846 5845 5845 5844 5844 5844 5843 5843 5841 5841 5840 5840 5839 5839 5839 5839 5838 5837 5836 5835 5834 5833 5832 5831 5831 5831 5831 5831 5831 5831 5830 5830 5830 5829 5829 5829 5829 5829 5830 5830 5830 5830 5830 5830 5830 5830 5829 5829 5829 5829 5829 5829 5829 5829
5851 5850 5850 5850 5850 5850 5850 5850 5850 5850 5850 5850 5850 5851 5850 5850 5850 5850 5850 5851 5851 5850 5850 5849 5849 5848 5848 5847 5847 5846 5846 5845 5845 5844 5843 5843 5843 5843 5842 5841 5840 5840 5839 5839 5839 5839 5839 5838 5837 5836 5835 5834 5833 5832 5831 5831 5831 5831 5831 5831 5830 5830 5830 5830 5830 5830 5830 5830 5830 5830 5830 5830 5830 5830 5830 5830 5829 5829 5829 5829 5829 5829 5829 5829 5829
5849 5849 5848 5848 5848 5848 5848 5848 5848 5848 5849 5849 5849 5849 5849 5849 5850 5850 5850 5850 5850 5849 5849 5848 5847 5847 5846 5846 5846 5845 5845 5845 5844 5843 5843 5842 5842 5842 5841 5840 5840 5839 5839 5838 5838 5839 5839 5838 5837 5836 5835 5833 5832 5832 5831 5832 5832 5832 5832 5831 5830 5830 5830 5830 5830 5830 5830 5830 5829 5829 5830 5830 5830 5830 5830 5830 5829 5829 5829 5829 5829 5829 5829 5829 5829
5848 5847 5847 5846 5846 5846 5846 5846 5846 5847 5847 5847 5848 5848 5848 5849 5849 5849 5849 5849 5849 5848 5847 5847 5846 5846 5845 5845 5845 5844 5844 5844 5843 5843 5842 5842 5841 5841 5841 5840 5839 5839 5838 5838 5838 5838 5839 5838 5837 5836 5834 5833 5832 5831 5831 5832 5833 5832 5832 5831 5831 5830 5830 5830 5830 5830 5830 5829 5829 5829 5830 5830 5830 5830 5830 5829 5829 5829 5829 5829 5829 5829 5829 5829 5829
5846 5845 5844 5844 5844 5844 5844 5845 5845 5845 5845 5846 5846 5847 5847 5848 5848 5848 5849 5848 5848 5847 5846 5845 5845 5845 5844 5844 5844 5843 5843 5843 5842 5842 5841 5841 5841 5841 5840 5839 5839 5838 5837 5837 5837 5838 5838 5838 5837 5836 5834 5833 5831 5831 5832 5833 5833 5833 5832 5832 5831 5831 5831 5831 5830 5830 5830 5829 5829 5829 5829 5829 5829 5829 5829 5829 5829 5829 5829 5829 5829 5829 5829 5828 5828
5844 5843 5842 5842 5842 5842 5843 5843 5843 5843 5844 5844 5845 5846 5846 5847 5847 5847 5847 5847 5846 5846 5845 5845 5844 5844 5843 5843 5843 5842 5842 5842 5842 5841 5841 5841 5840 5840 5839 5839 5838 5837 5837 5836 5837 5837 5837 5837 5836 5836 5834 5832 5831 5831 5831 5833 5833 5832 5832 5832 5832 5831 5831 5830 5830 5830 5829 5829 5829 5829 5829 5829 5829 5829 5829 5829 5829 5828 5828 5828 5828 5828 5828 5828 5828
5841 5840 5840 5839 5840 5840 5841 5841 5841 5842 5842 5843 5844 5844 5845 5845 5845 5846 5846 5845 5845 5845 5844 5844 5843 5842 5842 5842 5842 5841 5841 5841 5841 5840 5840 5840 5840 5839 5839 5838 5837 5837 5836 5836 5836 5836 5836 5836 5836 5835 5834 5832 5831 5830 5831 5832 5833 5832 5832 5831 5831 5831 5831 5830 5830 5829 5829 5829 5829 5829 5828 5828 5828 5828 5828 5828 5828 5828 5828 5828 5827 5827 5827 5827 5827
5839 5838 5837 5837 5838 5838 5839 5839 5840 5840 5841 5842 5842 5843 5843 5843 5844 5844 5844 5844 5844 5843 5843 5843 5842 5841 5841 5841 5841 5840 5840 5840 5840 5839 5839 5839 5839 5838 5838 5837 5836 5836 5836 5835 5835 5836 5836 5835 5835 5835 5835 5833 5830 5830 5831 5831 5832 5832 5831 5831 5831 5831 5830 5830 5829 5829 5829 5829 5828 5828 5828 5828 5828 5828 5828 5828 5828 5828 5827 5827 5827 5827 5827 5826 5826
5836 5835 5835 5835 5836 5837 5837 5838 5838 5839 5839 5840 5841 5841 5841 5842 5842 5843 5843 5843 5842 5842 5841 5841 5841 5840 5840 5840 5839 5839 5839 5839 5839 5838 5838 5838 5838 5838 5837 5836 5836 5835 5835 5835 5835 5835 5835 5834 5834 5834 5835 5833 5830 5830 5830 5831 5831 5831 5831 5831 5831 5830 5830 5829 5829 5829 5828 5828 5828 5827 5827 5827 5827 5827 5827 5827 5827 5827 5826 5826 5826 5826 5826 5826 5826
5834 5834 5833 5834 5835 5835 5836 5836 5837 5837 5838 5839 5839 5840 5840 5841 5841 5841 5841 5841 5841 5840 5840 5839 5839 5839 5839 5838 5838 5838 5838 5837 5838 5837 5837 5837 5837 5837 5836 5835 5835 5835 5834 5834 5834 5834 5834 5833 5833 5834 5834 5833 5830 5829 5829 5830 5830 5830 5830 5830 5830 5830 5830 5829 5829 5828 5828 5827 5827 5827 5826 5826 5826 5826 5826 5826 5826 5826 5826 5825 5825 5825 5825 5825 5825
5832 5832 5832 5832 5833 5833 5834 5835 5836 5836 5837 5838 5839 5839 5839 5839 5840 5840 5840 5840 5839 5838 5838 5837 5837 5837 5837 5836 5836 5836 5836 5836 5836 5836 5835 5835 5836 5836 5835 5835 5834 5834 5833 5833 5833 5833 5832 5832 5832 5833 5834 5832 5831 5829 5828 5829 5830 5830 5829 5830 5830 5830 5830 5829 5829 5828 5827 5827 5826 5826 5826 5826 5826 5825 5825 5825 5825 5825 5825 5825 5824 5824 5824 5824 5824
5829 5829 5830 5830 5831 5832 5833 5834 5835 5836 5836 5837 5837 5837 5837 5838 5838 5838 5838 5838 5837 5836 5836 5835 5835 5835 5835 5834 5834 5834 5834 5834 5835 5834 5834 5834 5835 5835 5834 5834 5833 5833 5833 5832 5832 5832 5831 5831 5831 5832 5833 5832 5830 5828 5827 5828 5829 5829 5829 5829 5830 5829 5829 5829 5828 5828 5827 5827 5826 5825 5825 5825 5825 5825 5824 5824 5824 5824 5824 5824 5824 5824 5824 5824 5824
5826 5827 5828 5829 5829 5830 5831 5833 5834 5835 5835 5835 5835 5835 5836 5836 5837 5837 5837 5836 5835 5834 5833 5833 5833 5833 5832 5832 5832 5833 5832 5832 5833 5832 5832 5833 5833 5833 5833 5833 5832 5832 5832 5831 5831 5830 5830 5830 5831 5831 5831 5831 5830 5828 5828 5828 5829 5828 5828 5828 5829 5829 5828 5828 5827 5827 5826 5826 5825 5825 5824 5824 5824 5824 5823 5823 5823 5823 5823 5823 5823 5823 5823 5823 5823
5824 5826 5827 5827 5828 5829 5830 5832 5832 5833 5833 5833 5833 5834 5834 5835 5835 5835 5834 5834 5833 5832 5831 5831 5831 5831 5831 5830 5830 5831 5830 5830 5831 5831 5831 5831 5832 5832 5832 5832 5831 5831 5831 5830 5830 5829 5829 5829 5830 5830 5830 5830 5829 5829 5828 5828 5828 5828 5828 5828 5828 5828 5828 5827 5827 5826 5826 5825 5824 5824 5824 5823 5823 5823 5822 5822 5822 5822 5822 5822 5822 5822 5822 5822 5822
5824 5825 5825 5825 5826 5827 5828 5830 5830 5831 5831 5831 5831 5831 5832 5832 5832 5832 5832 5831 5831 5830 5829 5829 5829 5829 5829 5829 5829 5829 5829 5829 5829 5829 5829 5830 5830 5830 5830 5830 5830 5830 5830 5829 5829 5828 5828 5829 5829 5829 5829 5829 5829 5829 5828 5828 5828 5828 5828 5828 5828 5828 5827 5826 5826 5825 5824 5824 5823 5823 5823 5822 5822 5822 5821 5821 5821 5821 5820 5820 5821 5821 5820 5821 5821
5823 5822 5822 5822 5823 5824 5826 5827 5827 5828 5828 5828 5829 5829 5829 5829 5830 5829 5829 5829 5828 5827 5827 5827 5826 5827 5827 5827 5827 5827 5827 5827 5827 5827 5827 5828 5828 5828 5829 5829 5829 5829 5829 5828 5828 5827 5827 5828 5828 5828 5828 5828 5829 5829 5829 5828 5827 5827 5827 5827 5827 5827 5826 5826 5825 5824 5824 5823 5823 5822 5822 5821 5821 5820 5820 5820 5820 5819 5819 5819 5819 5819 5819 5819 5819
5820 5818 5817 5817 5818 5820 5822 5823 5824 5824 5825 5825 5826 5826 5827 5827 5827 5827 5826 5826 5825 5825 5825 5824 5824 5825 5825 5826 5825 5826 5826 5825 5825 5826 5826 5826 5826 5826 5827 5827 5827 5828 5828 5828 5827 5827 5827 5828 5827 5827 5827 5827 5828 5829 5829 5828 5827 5827 5826 5826 5826 5826 5826 5825 5825 5824 5823 5823 5822 5822 5821 5820 5820 5819 5818 5818 5818 5818 5818 5818 5818 5818 5818 5818 5818
5815 5812 5810 5810 5812 5815 5817 5819 5820 5821 5822 5822 5823 5823 5824 5824 5824 5824 5824 5823 5823 5823 5823 5822 5823 5823 5823 5824 5824 5824 5824 5823 5823 5824 5824 5824 5824 5825 5825 5826 5826 5826 5827 5826 5826 5826 5827 5828 5827 5826 5826 5826 5827 5828 5829 5828 5827 5826 5826 5826 5826 5825 5825 5825 5824 5824 5823 5823 5822 5821 5820 5819 5818 5818 5817 5816 5816 5816 5816 5816 5816 5817 5817 5817 5817
5811 5807 5807 5808 5808 5810 5814 5816 5817 5818 5819 5819 5820 5820 5821 5821 5822 5822 5821 5821 5821 5821 5821 5821 5821 5822 5821 5822 5822 5822 5822 5821 5821 5821 5821 5822 5822 5823 5824 5824 5824 5825 5825 5825 5825 5826 5827 5827 5826 5825 5825 5825 5826 5827 5828 5828 5827 5826 5825 5825 5825 5825 5824 5824 5823 5823 5823 5822 5821 5820 5819 5818 5817 5816 5816 5815 5814 5814 5814 5814 5815 5815 5815 5815 5816
5810 5810 5810 5810 5809 5810 5812 5813 5814 5815 5815 5815 5816 5817 5818 5818 5819 5819 5819 5819 5818 5819 5819 5819 5820 5820 5820 5820 5820 5820 5820 5820 5819 5820 5820 5820 5821 5821 5822 5822 5823 5823 5824 5824 5825 5826 5827 5827 5825 5825 5825 5824 5825 5827 5827 5827 5826 5826 5825 5825 5824 5824 5824 5823 5823 5823 5822 5822 5821 5820 5819 5817 5816 5815 5814 5814 5813 5813 5813 5813 5813 5813 5814 5814 5814
5808 5810 5810 5810 5810 5811 5810 5811 5812 5811 5811 5812 5812 5813 5814 5815 5816 5816 5816 5816 5816 5816 5816 5817 5817 5817 5818 5818 5818 5818 5817 5817 5817 5818 5818 5819 5819 5820 5820 5821 5821 5822 5823 5824 5824 5825 5826 5826 5825 5825 5824 5824 5825 5826 5826 5826 5826 5825 5825 5824 5824 5824 5823 5823 5823 5822 5822 5821 5820 5819 5818 5817 5815 5814 5813 5813 5812 5811 5811 5811 5812 5812 5813 5813 5813
5805 5806 5807 5807 5807 5807 5807 5807 5808 5807 5807 5809 5810 5811 5812 5812 5813 5813 5813 5813 5814 5814 5814 5815 5815 5815 5815 5815 5815 5815 5815 5815 5815 5816 5817 5817 5818 5818 5818 5819 5819 5821 5822 5822 5822 5823 5824 5825 5824 5824 5824 5824 5824 5825 5825 5825 5825 5824 5824 5824 5823 5823 5823 5823 5822 5822 5821 5821 5820 5819 5817 5816 5815 5814 5813 5812 5811 5810 5810 5810 5811 5811 5812 5812 5813
5803 5803 5804 5804 5804 5804 5805 5806 5806 5805 5805 5807 5807 5808 5810 5812 5813 5812 5811 5811 5811 5812 5813 5814 5814 5814 5814 5813 5813 5813 5813 5813 5814 5815 5815 5816 5816 5816 5817 5817 5818 5819 5820 5820 5821 5822 5823 5823 5823 5823 5823 5824 5824 5824 5824 5824 5824 5823 5823 5823 5822 5822 5822 5822 5821 5821 5820 5820 5819 5818 5817 5816 5815 5814 5813 5812 5811 5810 5810 5810 5810 5810 5811 5811 5812
5800 5800 5801 5801 5801 5802 5803 5804 5805 5805 5805 5806 5806 5806 5807 5808 5809 5810 5809 5808 5809 5811 5811 5812 5812 5812 5812 5812 5812 5811 5811 5812 5812 5813 5813 5814 5815 5815 5814 5815 5816 5818 5818 5818 5820 5821 5822 5823 5823 5823 5823 5823 5823 5823 5823 5823 5823 5822 5822 5822 5822 5821 5821 5821 5821 5820 5820 5819 5819 5818 5817 5815 5814 5813 5812 5812 5811 5810 5810 5809 5809 5810 5810 5810 5811
5797 5797 5798 5798 5798 5799 5800 5801 5802 5803 5804 5804 5804 5803 5803 5803 5804 5805 5806 5806 5807 5808 5809 5809 5810 5810 5810 5810 5810 5810 5810 5810 5811 5812 5812 5813 5813 5813 5812 5813 5815 5816 5816 5817 5818 5820 5821 5822 5822 5822 5823 5823 5822 5822 5822 5822 5822 5821 5821 5821 5821 5821 5821 5821 5820 5820 5819 5819 5818 5817 5816 5815 5814 5813 5812 5811 5810 5810 5809 5809 5809 5809 5810 5810 5811
5795 5795 5795 5796 5797 5798 5799 5799 5800 5801 5801 5802 5801 5801 5800 5800 5800 5802 5803 5804 5805 5806 5806 5807 5807 5808 5808 5808 5808 5808 5808 5809 5810 5810 5811 5811 5812 5811 5811 5812 5813 5814 5815 5815 5817 5819 5820 5820 5821 5821 5822 5822 5822 5821 5821 5821 5821 5821 5821 5820 5820 5820 5820 5820 5820 5819 5819 5818 5817 5816 5816 5815 5814 5813 5812 5811 5810 5809 5809 5808 5808 5809 5809 5810 5810
5793 5793 5794 5795 5796 5796 5797 5798 5799 5799 5799 5800 5799 5798 5797 5797 5798 5800 5800 5800 5802 5803 5804 5805 5805 5805 5805 5805 5805 5806 5806 5807 5808 5808 5809 5810 5810 5809 5809 5810 5812 5813 5813 5814 5816 5817 5818 5819 5820 5821 5821 5821 5821 5820 5821 5821 5821 5821 5820 5820 5819 5819 5819 5819 5819 5818 5818 5817 5817 5816 5815 5814 5814 5813 5811 5810 5809 5809 5808 5808 5808 5808 5809 5810 5810
5791 5792 5793 5794 5794 5794 5795 5796 5796 5796 5798 5798 5795 5794 5794 5795 5796 5797 5797 5798 5799 5800 5802 5802 5803 5803 5802 5803 5803 5804 5804 5805 5806 5807 5807 5808 5809 5808 5808 5809 5811 5812 5812 5813 5814 5816 5817 5818 5819 5820 5820 5820 5820 5820 5821 5821 5820 5820 5819 5819 5819 5818 5818 5818 5818 5817 5817 5816 5816 5815 5815 5814 5813 5812 5811 5810 5809 5808 5807 5807 5808 5808 5809 5809 5810
5791 5791 5792 5792 5791 5792 5793 5794 5793 5792 5795 5795 5792 5791 5792 5793 5794 5795 5796 5797 5797 5798 5799 5800 5801 5800 5800 5800 5801 5802 5802 5804 5804 5805 5806 5806 5807 5807 5807 5808 5809 5811 5812 5812 5813 5814 5815 5816 5817 5818 5819 5819 5819 5820 5820 5820 5820 5819 5818 5818 5818 5818 5817 5817 5817 5816 5816 5816 5815 5815 5814 5813 5813 5812 5810 5809 5808 5807 5807 5807 5808 5808 5808 5809 5809
5790 5790 5790 5790 5789 5790 5791 5792 5790 5788 5789 5790 5788 5788 5789 5790 5791 5792 5794 5795 5795 5796 5797 5798 5798 5798 5798 5798 5799 5800 5801 5802 5802 5803 5804 5805 5805 5806 5806 5806 5808 5810 5811 5811 5812 5813 5814 5815 5816 5817 5818 5818 5819 5819 5819 5819 5819 5818 5817 5817 5817 5817 5817 5816 5816 5816 5816 5815 5815 5814 5814 5813 5812 5811 5810 5809 5808 5807 5807 5807 5807 5807 5808 5809 5809
5788 5788 5789 5788 5788 5788 5789 5789 5789 5787 5786 5785 5785 5786 5786 5786 5787 5787 5790 5792 5793 5794 5794 5795 5795 5795 5796 5797 5797 5798 5799 5800 5801 5802 5803 5803 5804 5805 5805 5805 5807 5809 5810 5811 5811 5812 5813 5814 5815 5816 5816 5817 5818 5818 5818 5818 5818 5817 5817 5816 5816 5816 5816 5816 5815 5815 5815 5815 5815 5814 5814 5813 5812 5811 5810 5809 5808 5807 5807 5807 5807 5807 5807 5808 5809
5786 5787 5787 5786 5786 5787 5787 5787 5787 5785 5784 5783 5782 5783 5783 5784 5784 5785 5787 5788 5790 5791 5792 5793 5793 5794 5795 5796 5796 5796 5797 5798 5799 5800 5801 5802 5803 5803 5803 5804 5806 5808 5809 5810 5810 5811 5812 5812 5814 5814 5815 5816 5816 5816 5816 5817 5816 5816 5816 5815 5815 5815 5815 5815 5815 5815 5815 5815 5814 5814 5813 5813 5812 5811 5810 5809 5808 5808 5807 5807 5807 5807 5807 5808 5808
5784 5784 5784 5784 5784 5785 5785 5785 5785 5783 5783 5782 5782 5781 5782 5783 5783 5783 5785 5786 5788 5788 5789 5791 5792 5793 5794 5795 5795 5795 5796 5797 5798 5799 5800 5801 5801 5801 5802 5803 5804 5807 5808 5809 5809 5809 5810 5811 5812 5813 5814 5814 5814 5815 5815 5815 5815 5815 5815 5815 5814 5814 5814 5814 5814 5814 5814 5814 5814 5814 5813 5812 5812 5811 5810 5810 5809 5808 5807 5807 5807 5807 5807 5808 5808
5781 5781 5781 5781 5782 5782 5782 5783 5783 5782 5781 5781 5781 5781 5781 5782 5781 5782 5784 5785 5786 5787 5787 5789 5790 5791 5792 5793 5793 5793 5794 5795 5796 5797 5798 5799 5799 5800 5800 5801 5803 5805 5806 5807 5807 5808 5808 5810 5811 5811 5812 5812 5812 5813 5814 5814 5814 5814 5814 5813 5813 5813 5813 5814 5814 5814 5814 5814 5814 5813 5813 5812 5811 5811 5811 5810 5809 5809 5808 5808 5808 5807 5807 5808 5808
5779 5778 5778 5778 5778 5779 5780 5780 5780 5780 5779 5779 5780 5780 5780 5779 5779 5780 5782 5784 5785 5785 5785 5787 5788 5790 5791 5791 5791 5792 5793 5793 5794 5795 5796 5797 5798 5798 5799 5800 5801 5803 5804 5805 5806 5806 5807 5808 5809 5810 5810 5810 5811 5811 5812 5813 5813 5813 5812 5812 5812 5812 5812 5812 5812 5812 5813 5813 5813 5812 5812 5812 5811 5811 5811 5810 5810 5809 5809 5808 5808 5808 5808 5808 5808
5777 5776 5775 5775 5775 5775 5777 5777 5777 5777 5777 5777 5777 5778 5778 5777 5777 5778 5781 5782 5783 5783 5784 5786 5787 5788 5789 5789 5789 5790 5790 5791 5792 5793 5794 5795 5796 5797 5797 5799 5800 5801 5802 5803 5804 5805 5805 5807 5808 5808 5809 5809 5809 5810 5810 5811 5811 5811 5811 5810 5810 5810 5811 5811 5811 5811 5811 5811 5812 5811 5811 5811 5811 5810 5810 5810 5809 5809 5809 5808 5808 5808 5808 5808 5808
5775 5774 5774 5774 5774 5774 5774 5774 5774 5775 5776 5776 5776 5775 5775 5775 5776 5778 5780 5781 5782 5782 5783 5785 5786 5786 5786 5786 5787 5787 5788 5789 5790 5791 5792 5793 5794 5795 5796 5797 5798 5799 5800 5801 5802 5803 5804 5805 5806 5807 5807 5808 5808 5808 5809 5809 5810 5810 5810 5809 5809 5809 5809 5810 5810 5810 5810 5810 5810 5810 5810 5810 5810 5809 5809 5809 5809 5808 5808 5808 5807 5807 5807 5807 5807
5773 5773 5773 5772 5772 5773 5773 5772 5772 5772 5773 5774 5774 5774 5773 5773 5775 5777 5778 5779 5781 5782 5782 5783 5784 5784 5784 5784 5785 5786 5786 5787 5788 5789 5790 5791 5793 5794 5795 5796 5796 5798 5799 5800 5801 5802 5803 5804 5804 5805 5806 5806 5806 5807 5807 5807 5808 5808 5808 5808 5808 5808 5808 5808 5809 5809 5809 5809 5809 5809 5809 5809 5808 5808 5808 5808 5808 5808 5808 5807 5807 5806 5806 5806 5806
5772 5772 5771 5771 5771 5772 5773 5772 5771 5771 5771 5771 5772 5772 5772 5772 5773 5775 5776 5778 5779 5780 5781 5781 5782 5783 5783 5783 5783 5784 5785 5785 5786 5788 5789 5790 5791 5792 5793 5794 5795 5796 5797 5799 5800 5800 5801 5802 5803 5803 5804 5804 5805 5805 5805 5806 5806 5807 5807 5807 5807 5807 5807 5807 5808 5808 5808 5808 5808 5808 5808 5807 5807 5807 5807 5807 5807 5807 5807 5806 5806 5806 5806 5806 5805
5771 5771 5770 5769 5770 5771 5771 5771 5771 5771 5770 5769 5769 5770 5771 5771 5772 5773 5774 5775 5777 5778 5779 5779 5780 5781 5781 5781 5781 5782 5783 5784 5785 5786 5787 5789 5789 5790 5791 5792 5793 5794 5795 5797 5798 5799 5800 5800 5801 5802 5802 5803 5803 5803 5804 5804 5805 5805 5806 5806 5806 5806 5806 5807 5807 5807 5807 5807 5807 5807 5806 5806 5806 5806 5806 5806 5806 5806 5806 5806 5806 5806 5806 5806 5806
5769 5768 5768 5768 5769 5769 5769 5770 5770 5769 5769 5768 5768 5768 5768 5769 5770 5771 5772 5773 5774 5775 5776 5777 5778 5779 5779 5779 5779 5780 5781 5782 5783 5785 5786 5787 5788 5789 5790 5791 5792 5792 5793 5794 5795 5796 5798 5798 5799 5800 5801 5801 5802 5802 5802 5803 5803 5804 5804 5804 5805 5805 5805 5806 5806 5806 5806 5806 5805 5805 5805 5804 5804 5804 5804 5805 5805 5805 5805 5806 5806 5806 5806 5806 5806